Regional Weather Roundup
Issued by NWS

Home | Current Version | Previous Version | Graphics & Text | Print | Product List | Glossary On
Versions: 1 2 3 4 5 6 7 8 9 10 11 12 13 14 15 16 17 18 19 20 21 22 23 24 25 26 27 28 29 30 31 32 33 34 35 36 37 38 39 40 41 42 43 44 45 46 47 48 49 50
000
ASUS43 KMKX 250224
RWRWI

WISCONSIN REGIONAL WEATHER ROUNDUP
NATIONAL WEATHER SERVICE MILWAUKEE/SULLIVAN WI
900 PM CDT SUN MAY 24 2015

NOTE: "FAIR" INDICATES FEW OR NO CLOUDS BELOW 12,000 FEET WITH NO
SIGNIFICANT WEATHER AND/OR OBSTRUCTIONS TO VISIBILITY.

WIZ001-002-006>008-014>016-023>028-250300-
NORTHWEST WISCONSIN

CITY           SKY/WX    TMP DP  RH WIND       PRES   REMARKS
SUPERIOR ARPT  RAIN      59  57  91 CALM      29.94F
ASHLAND        LGT RAIN  60  57  89 CALM      29.96F
HAYWARD        LGT RAIN  58  56  93 E6        29.93F
SIREN          LGT RAIN  58  57  96 E6        29.90F
CUMBERLAND     RAIN      55  54  94 E7        29.90F
RICE LAKE      DRIZZLE   58  55  91 E9        29.91F
CHETEK         LGT RAIN  58  57  98 E8        29.90F
LADYSMITH      RAIN      58  56  96 E7        29.94F
EAU CLAIRE     LGT RAIN  58  56  93 E8        29.88F FOG
MENOMONIE      DRIZZLE   58  57  97 E9        29.88F
NEW RICHMOND   LGT RAIN  58  58 100 E10       29.87F
OSCEOLA        DRIZZLE   59  59 100 E9        29.89F
$$

WIZ003>005-009-010-017-018-250300-
NORTH CENTRAL WISCONSIN

CITY           SKY/WX    TMP DP  RH WIND       PRES   REMARKS
MANITOWISH WTR LGT RAIN  56  56 100 CALM      29.98F
ARBOR VITAE    DRIZZLE   57  55  93 SE7       29.98F
WOODRUFF       DRIZZLE   57  55  93 SE7       29.98F
RHINELANDER    LGT RAIN  56  54  93 E7        29.99F
EAGLE RIVER    RAIN      56  56  98 CALM      29.99F
LAND O LAKES   LGT RAIN  57  56  95 CALM      30.01S
PHILLIPS       DRIZZLE   56  55  98 E5        29.96F
TOMAHAWK       RAIN      55  54  95 E5        29.97F
MEDFORD        LGT RAIN  55  55  99 E7        29.94F
MERRILL        HVY RAIN  56  56 100 CALM      29.97F
$$

WIZ029-030-035-036-043>047-250300-
CENTRAL WISCONSIN

CITY           SKY/WX    TMP DP  RH WIND       PRES   REMARKS
WAUSAU         RAIN      56  55  97 SE5       29.94F
MOSINEE        RAIN      55  55 100 MISG      29.97S
MARSHFIELD     LGT RAIN  57  53  86 SE12      29.93F
STEVENS POINT  RAIN      54  52  95 E12G18    29.95F
WAUPACA        LGT RAIN  57  56  97 E6        29.97F
WAUTOMA        CLOUDY    56  56 100 E6        29.96F
WISC RAPIDS    LGT RAIN  56  53  90 SE9       29.94F
CAMP DOUGLAS   LGT RAIN  57  57 100 E12       29.90S
$$

WIZ011>013-019>022-031-037>040-048>050-250300-
NORTHEAST WISCONSIN

CITY           SKY/WX    TMP DP  RH WIND       PRES   REMARKS
ANTIGO         RAIN      55  55  99 SE8       29.99S
SHAWANO        DRIZZLE   57  55  94 E5        29.99F
OCONTO         CLOUDY    55  55 100 E3        30.01F
STURGEON BAY   CLOUDY    55  52  88 SE9       30.04F
GREEN BAY      RAIN      56  54  93 E7        29.99F FOG
MANITOWOC      RAIN      57  56  96 E15       29.97F FOG
APPLETON       LGT RAIN  55  55 100 E9        29.98F FOG
CLINTONVILLE   DRIZZLE   54  54 100 E5        29.98F
OSHKOSH        CLOUDY    57  54  89 E9        29.96S
$$

WIZ032>034-041-042-053>061-250300-
SOUTHWEST WISCONSIN

CITY           SKY/WX    TMP DP  RH WIND       PRES   REMARKS
LA CROSSE      LGT RAIN  61  57  87 SE5       29.86F
SPARTA         CLOUDY    58  56  93 SE5       29.89F
VIROQUA        CLOUDY    57  57 100 E10       29.87F
BOSCOBEL       LGT RAIN  61  59  93 NE6       29.87F FOG
PRAIRIE DU CHI LGT RAIN  61  59  92 E7        29.84F
PLATTEVILLE    CLOUDY    61  60  97 E12       29.86F
$$

WIZ056-057-062-063-064-067-068-250300-
SOUTH CENTRAL WISCONSIN

CITY           SKY/WX    TMP DP  RH WIND       PRES   REMARKS
REEDSBURG      DRIZZLE   56  55  97 E5        29.90F
BARABOO/DELLS  LGT RAIN  56  54  92 E9        29.91F
LONE ROCK      CLOUDY    59  57  93 E12       29.88F
MINERAL POINT  RAIN      61  59  94 E10       29.88F
MADISON        CLOUDY    58  56  93 E6        29.91F FOG
MIDDLETON      CLOUDY    59  58  95 E5        29.91F
WATERTOWN      LGT RAIN  56  56 100 E5        29.92F
MONROE         CLOUDY    59  59 100 E7        29.89F FOG
JANESVILLE     LGT RAIN  63  61  94 W9        29.92R
$$

WIZ051-052-058>065-066-070>072-250300-
SOUTHEAST WISCONSIN

CITY           SKY/WX    TMP DP  RH WIND       PRES   REMARKS
MILWAUKEE      LGT RAIN  55  51  86 SE6       29.94F
WAUKESHA       CLOUDY    54  52  94 E9        29.95F
MILWAUKEE/TIMM RAIN      55  52  88 CALM      29.95F
RACINE         LGT RAIN  55  51  86 SE9       29.95F
BURLINGTON     CLOUDY    56  55  94 CALM      29.92F
KENOSHA        CLOUDY    57  54  89 E7        29.93F
FOND DU LAC    LGT RAIN  57  54  89 SE9       29.95F
SHEBOYGAN      HVY RAIN  56  54  93 SE9       29.97F FOG
WEST BEND      HVY RAIN  55  54  94 E5        29.96S
JUNEAU         RAIN      56  55  95 E9        29.95S
$$

LSZ147-162-250300-
LAKE SUPERIOR

STATION/POSITION TIME  TEMP    WIND        PRES    WAVE
                       AIR SEA DIR/SP/G            HT/PER
                 (UTC) (F)     (DEG/KT/KT) (MB)    (FT/S)
W MID LAKE BUOY  0150   43 37  190/ 10/ 10   N/A     0
DEVILS ISLAND    0200   60     180/  6/  7   N/A
PORT WING        0100   66     200/  5/  8   N/A
SAXON HARBOR     0100   65      CALM  /  7   N/A
$$

LMZ867-665-643>646-250300-
LAKE MICHIGAN

STATION/POSITION TIME  TEMP    WIND        PRES    WAVE
                       AIR SEA DIR/SP/G            HT/PER
                 (UTC) (F)     (DEG/KT/KT) (MB)    (FT/S)
CHAMBERS ISLAND  0100   56     150/  2/  5   N/A
N MID LAKE BUOY  0150   45 36   CALM  /  2   N/A     1/ 3
NORTHPORT PIER   0100   54     160/  4/  6   N/A
SISTER BAY       0117   54      CALM  /  3   N/A
KEWAUNEE LAKESHO 0100   50      60/  3/  5   N/A
SHEBOYGAN LAKESH 0200   51     360/  5/  6   N/A
PORT WASHINGTON  0100   50      50/  7/  9   N/A
ATWATER BUOY     0100   51 46  110/  6/ 10   N/A
MILWAUKEE LAKESH 0100   51     220/  2/  4   N/A
S MID LAKE BUOY  0150   46 38   60/ 12/ 12   N/A     1
$$

TC  - TEMPERATURE IN CELSIUS
VSB - VISIBILITY IN STATUTE MILES
WCI - WIND CHILL INDEX
HX  - HEAT INDEX




USA.gov is the U.S. government's official web portal to all federal, state and local government web resources and services.